| time (UTC) | temp C | wind direction | speed KPH | gust KPH | rain 1hr cm | rain 24hr cm | rain mn cm | humidity % | barometer mb |
| 20260906224525 | 37 | 82 | 4.8 | 17.7 | 0.00 | 0.00 | 0.00 | 40 | 1007.3 |
| 20260906223624 | 37 | 84 | 6.4 | 27.4 | 0.00 | 0.00 | 0.00 | 39 | 1007.2 |
| 20260906222704 | 37 | 81 | 3.2 | 12.9 | 0.00 | 0.00 | 0.00 | 41 | 1007.2 |
| 20260906221804 | 37 | 84 | 3.2 | 9.7 | 0.00 | 0.00 | 0.00 | 40 | 1007.3 |
| 20260906220924 | 38 | 84 | 3.2 | 11.3 | 0.00 | 0.00 | 0.00 | 38 | 1007.3 |
| 20260906220004 | 38 | 72 | 4.8 | 19.3 | 0.00 | 0.00 | 0.00 | 38 | 1007.3 |
| 20260906215403 | 38 | 93 | 3.2 | 12.9 | 0.00 | 0.00 | 0.00 | 40 | 1007.4 |
| 20260906214503 | 38 | 125 | 3.2 | 8.0 | 0.00 | 0.00 | 0.00 | 38 | 1007.5 |
| 20260906213604 | 40 | 79 | 4.8 | 14.5 | 0.00 | 0.00 | 0.00 | 38 | 1007.6 |
| 20260906212703 | 40 | 70 | 4.8 | 16.1 | 0.00 | 0.00 | 0.00 | 37 | 1007.7 |
| 20260906211803 | 40 | 91 | 3.2 | 16.1 | 0.00 | 0.00 | 0.00 | 37 | 1007.7 |
| 20260906210925 | 40 | 111 | 4.8 | 14.5 | 0.00 | 0.00 | 0.00 | 36 | 1007.8 |
| 20260906210003 | 40 | 138 | 4.8 | 12.9 | 0.00 | 0.00 | 0.00 | 36 | 1007.9 |
| 20260906205403 | 40 | 139 | 3.2 | 12.9 | 0.00 | 0.00 | 0.00 | 37 | 1008.0 |
| 20260906204504 | 40 | 100 | 3.2 | 11.3 | 0.00 | 0.00 | 0.00 | 38 | 1008.1 |
| 20260906203604 | 40 | 98 | 3.2 | 14.5 | 0.00 | 0.00 | 0.00 | 37 | 1008.2 |
| 20260906202704 | 40 | 75 | 4.8 | 14.5 | 0.00 | 0.00 | 0.00 | 40 | 1008.3 |
| 20260906201804 | 39 | 124 | 4.8 | 14.5 | 0.00 | 0.00 | 0.00 | 38 | 1008.5 |
| 20260906200924 | 40 | 114 | 3.2 | 11.3 | 0.00 | 0.00 | 0.00 | 39 | 1008.5 |
| 20260906200003 | 39 | 77 | 4.8 | 12.9 | 0.00 | 0.00 | 0.00 | 39 | 1008.6 |
| 20260906195403 | 38 | 107 | 4.8 | 11.3 | 0.00 | 0.00 | 0.00 | 40 | 1008.6 |
| 20260906194504 | 38 | 137 | 3.2 | 11.3 | 0.00 | 0.00 | 0.00 | 40 | 1008.8 |
| 20260906193625 | 38 | 49 | 4.8 | 19.3 | 0.00 | 0.00 | 0.00 | 41 | 1008.9 |
| 20260906192704 | 38 | 59 | 4.8 | 16.1 | 0.00 | 0.00 | 0.00 | 42 | 1009.0 |
| 20260906191803 | 38 | 73 | 4.8 | 11.3 | 0.00 | 0.00 | 0.00 | 41 | 1009.1 |
| 20260906190903 | 37 | 144 | 4.8 | 20.9 | 0.00 | 0.00 | 0.00 | 44 | 1009.2 |
| 20260906190003 | 37 | 152 | 6.4 | 12.9 | 0.00 | 0.00 | 0.00 | 43 | 1009.3 |
| 20260906185404 | 37 | 141 | 4.8 | 12.9 | 0.00 | 0.00 | 0.00 | 43 | 1009.3 |
| 20260906184503 | 37 | 135 | 3.2 | 8.0 | 0.00 | 0.00 | 0.00 | 45 | 1009.5 |
| 20260906183624 | 38 | 134 | 3.2 | 16.1 | 0.00 | 0.00 | 0.00 | 43 | 1009.7 |
| 20260906182703 | 37 | 120 | 3.2 | 8.0 | 0.00 | 0.00 | 0.00 | 45 | 1009.7 |
| 20260906181803 | 37 | 135 | 4.8 | 12.9 | 0.00 | 0.00 | 0.00 | 45 | 1009.9 |
| 20260906180904 | 36 | 130 | 3.2 | 11.3 | 0.00 | 0.00 | 0.00 | 47 | 1009.9 |
| 20260906180024 | 36 | 133 | 3.2 | 9.7 | 0.00 | 0.00 | 0.00 | 47 | 1010.0 |
| 20260906175404 | 36 | 73 | 3.2 | 14.5 | 0.00 | 0.00 | 0.00 | 48 | 1010.1 |
| 20260906174503 | 36 | 151 | 4.8 | 14.5 | 0.00 | 0.00 | 0.00 | 49 | 1010.3 |
| 20260906173603 | 36 | 75 | 3.2 | 12.9 | 0.00 | 0.00 | 0.00 | 49 | 1010.4 |
| 20260906172704 | 35 | 60 | 3.2 | 14.5 | 0.00 | 0.00 | 0.00 | 52 | 1010.6 |
| 20260906171825 | 35 | 136 | 4.8 | 11.3 | 0.00 | 0.00 | 0.00 | 51 | 1010.8 |
| 20260906170903 | 35 | 152 | 4.8 | 14.5 | 0.00 | 0.00 | 0.00 | 52 | 1011.0 |
| 20260906170025 | 35 | 149 | 1.6 | 6.4 | 0.00 | 0.00 | 0.00 | 54 | 1011.1 |
| 20260906165403 | 35 | 126 | 3.2 | 6.4 | 0.00 | 0.00 | 0.00 | 54 | 1011.2 |
| 20260906164504 | 34 | 102 | 3.2 | 9.7 | 0.00 | 0.00 | 0.00 | 55 | 1011.3 |
| 20260906163603 | 33 | 88 | 3.2 | 9.7 | 0.00 | 0.00 | 0.00 | 58 | 1011.3 |
| 20260906162704 | 33 | 106 | 3.2 | 6.4 | 0.00 | 0.00 | 0.00 | 61 | 1011.3 |
| 20260906161803 | 32 | 88 | 3.2 | 9.7 | 0.00 | 0.00 | 0.00 | 63 | 1011.2 |
| 20260906160903 | 32 | 62 | 4.8 | 12.9 | 0.00 | 0.00 | 0.00 | 66 | 1011.2 |
| 20260906160004 | 31 | 85 | 1.6 | 4.8 | 0.00 | 0.00 | 0.00 | 68 | 1011.2 |
| 20260906155403 | 31 | 68 | 1.6 | 4.8 | 0.00 | 0.00 | 0.00 | 69 | 1011.3 |
| 20260906154504 | 30 | 74 | 3.2 | 8.0 | 0.00 | 0.00 | 0.00 | 70 | 1011.2 |
| 20260906153604 | 30 | 126 | 1.6 | 9.7 | 0.00 | 0.00 | 0.00 | 72 | 1011.2 |
| 20260906152703 | 30 | 55 | 1.6 | 4.8 | 0.00 | 0.00 | 0.00 | 73 | 1011.2 |
| 20260906151803 | 29 | 167 | 3.2 | 9.7 | 0.00 | 0.00 | 0.00 | 74 | 1011.2 |
| 20260906150903 | 28 | 167 | 1.6 | 8.0 | 0.00 | 0.00 | 0.00 | 75 | 1011.2 |
| 20260906150004 | 28 | 0 | 0.0 | 0.0 | 0.00 | 0.00 | 0.00 | 77 | 1011.2 |
| 20260906145404 | 28 | 0 | 0.0 | 0.0 | 0.00 | 0.00 | 0.00 | 78 | 1011.2 |
| 20260906144525 | 28 | 164 | 1.6 | 8.0 | 0.00 | 0.00 | 0.00 | 78 | 1011.2 |
| 20260906143603 | 27 | 160 | 1.6 | 4.8 | 0.00 | 0.00 | 0.00 | 79 | 1011.2 |
| 20260906142703 | 27 | 156 | 1.6 | 8.0 | 0.00 | 0.00 | 0.00 | 80 | 1011.1 |
| 20260906141804 | 27 | 144 | 0.0 | 4.8 | 0.00 | 0.00 | 0.00 | 81 | 1011.1 |
| 20260906140903 | 26 | 162 | 1.6 | 8.0 | 0.00 | 0.00 | 0.00 | 82 | 1011.2 |
| 20260906140004 | 26 | 168 | 1.6 | 6.4 | 0.00 | 0.00 | 0.00 | 83 | 1010.9 |
| 20260906135404 | 26 | 164 | 1.6 | 6.4 | 0.00 | 0.00 | 0.00 | 84 | 1011.0 |
| 20260906134503 | 26 | 151 | 1.6 | 6.4 | 0.00 | 0.00 | 0.00 | 85 | 1011.0 |
| 20260906133603 | 25 | 151 | 1.6 | 9.7 | 0.00 | 0.00 | 0.00 | 86 | 1010.9 |
| 20260906132704 | 25 | 0 | 0.0 | 0.0 | 0.00 | 0.00 | 0.00 | 87 | 1010.8 |
| 20260906131804 | 25 | 0 | 0.0 | 0.0 | 0.00 | 0.00 | 0.00 | 87 | 1010.8 |
| 20260906130903 | 24 | 0 | 0.0 | 0.0 | 0.00 | 0.00 | 0.00 | 87 | 1010.9 |
| 20260906130004 | 24 | 0 | 0.0 | 0.0 | 0.00 | 0.00 | 0.00 | 87 | 1010.8 |
| 20260906125403 | 24 | 0 | 0.0 | 0.0 | 0.00 | 0.00 | 0.00 | 87 | 1010.7 |
| 20260906124504 | 24 | 0 | 0.0 | 0.0 | 0.00 | 0.00 | 0.00 | 87 | 1010.6 |
| 20260906123603 | 24 | 0 | 0.0 | 0.0 | 0.00 | 0.00 | 0.00 | 87 | 1010.6 |
| 20260906122704 | 24 | 0 | 0.0 | 0.0 | 0.00 | 0.00 | 0.00 | 86 | 1010.5 |
| 20260906121803 | 24 | 0 | 0.0 | 0.0 | 0.00 | 0.00 | 0.00 | 86 | 1010.4 |
| 20260906120924 | 24 | 0 | 0.0 | 0.0 | 0.00 | 0.00 | 0.00 | 86 | 1010.3 |
| 20260906120004 | 24 | 0 | 0.0 | 0.0 | 0.00 | 0.00 | 0.00 | 86 | 1010.3 |
| 20260906115404 | 24 | 0 | 0.0 | 0.0 | 0.00 | 0.00 | 0.00 | 85 | 1010.3 |
| 20260906114503 | 24 | 0 | 0.0 | 0.0 | 0.00 | 0.00 | 0.00 | 85 | 1010.2 |
| 20260906113603 | 24 | 0 | 0.0 | 0.0 | 0.00 | 0.00 | 0.00 | 84 | 1010.2 |
| 20260906112703 | 24 | 0 | 0.0 | 0.0 | 0.00 | 0.00 | 0.00 | 84 | 1010.1 |
| 20260906111824 | 25 | 0 | 0.0 | 0.0 | 0.00 | 0.00 | 0.00 | 83 | 1010.0 |
| 20260906110925 | 25 | 0 | 0.0 | 0.0 | 0.00 | 0.00 | 0.00 | 84 | 1010.0 |
| 20260906110003 | 25 | 0 | 0.0 | 0.0 | 0.00 | 0.00 | 0.00 | 83 | 1010.0 |
| 20260906105403 | 25 | 69 | 0.0 | 4.8 | 0.00 | 0.00 | 0.00 | 83 | 1010.0 |
| 20260906104503 | 25 | 90 | 0.0 | 4.8 | 0.00 | 0.00 | 0.00 | 83 | 1009.9 |
| 20260906103603 | 25 | 0 | 0.0 | 0.0 | 0.00 | 0.00 | 0.00 | 82 | 1009.8 |
| 20260906102724 | 25 | 0 | 0.0 | 0.0 | 0.00 | 0.00 | 0.00 | 82 | 1009.7 |
| 20260906101804 | 25 | 0 | 0.0 | 0.0 | 0.00 | 0.00 | 0.00 | 82 | 1009.6 |
| 20260906100903 | 25 | 0 | 0.0 | 0.0 | 0.00 | 0.00 | 0.00 | 82 | 1009.4 |
| 20260906100003 | 25 | 0 | 0.0 | 0.0 | 0.00 | 0.00 | 0.00 | 82 | 1009.3 |
| 20260906095404 | 25 | 0 | 0.0 | 0.0 | 0.00 | 0.00 | 0.00 | 82 | 1009.2 |
| 20260906094504 | 25 | 0 | 0.0 | 0.0 | 0.00 | 0.00 | 0.00 | 81 | 1009.1 |
| 20260906093603 | 25 | 165 | 0.0 | 3.2 | 0.00 | 0.00 | 0.00 | 82 | 1009.1 |
| 20260906092703 | 25 | 167 | 1.6 | 3.2 | 0.00 | 0.00 | 0.00 | 81 | 1009.1 |
| 20260906091803 | 25 | 158 | 1.6 | 6.4 | 0.00 | 0.00 | 0.00 | 81 | 1009.1 |
| 20260906090903 | 26 | 160 | 1.6 | 6.4 | 0.00 | 0.00 | 0.00 | 81 | 1009.0 |
| 20260906090003 | 26 | 173 | 1.6 | 6.4 | 0.00 | 0.00 | 0.00 | 81 | 1009.0 |
| 20260906085404 | 26 | 168 | 1.6 | 3.2 | 0.00 | 0.00 | 0.00 | 80 | 1009.0 |
| 20260906084504 | 26 | 0 | 0.0 | 0.0 | 0.00 | 0.00 | 0.00 | 80 | 1008.9 |
| 20260906083603 | 26 | 0 | 0.0 | 0.0 | 0.00 | 0.00 | 0.00 | 80 | 1009.0 |
| 20260906082703 | 26 | 0 | 0.0 | 0.0 | 0.00 | 0.00 | 0.00 | 80 | 1009.1 |
| 20260906081803 | 26 | 0 | 0.0 | 0.0 | 0.00 | 0.00 | 0.00 | 79 | 1009.2 |
| 20260906080903 | 26 | 0 | 0.0 | 0.0 | 0.00 | 0.00 | 0.00 | 79 | 1009.2 |
| 20260906080004 | 26 | 0 | 0.0 | 0.0 | 0.00 | 0.00 | 0.00 | 78 | 1009.1 |
| 20260906075403 | 26 | 0 | 0.0 | 0.0 | 0.00 | 0.00 | 0.00 | 78 | 1009.0 |
| 20260906074503 | 26 | 197 | 0.0 | 4.8 | 0.00 | 0.00 | 0.00 | 78 | 1009.1 |
| 20260906073603 | 26 | 169 | 1.6 | 6.4 | 0.00 | 0.00 | 0.00 | 78 | 1009.1 |
| 20260906072703 | 26 | 170 | 3.2 | 9.7 | 0.00 | 0.00 | 0.00 | 78 | 1009.2 |
| 20260906071803 | 27 | 167 | 3.2 | 8.0 | 0.00 | 0.00 | 0.00 | 77 | 1009.4 |
| 20260906070903 | 27 | 170 | 1.6 | 8.0 | 0.00 | 0.00 | 0.00 | 77 | 1009.5 |
| 20260906070003 | 27 | 168 | 3.2 | 9.7 | 0.00 | 0.00 | 0.00 | 77 | 1009.7 |
| 20260906065403 | 27 | 163 | 3.2 | 9.7 | 0.00 | 0.00 | 0.00 | 77 | 1009.7 |
| 20260906064504 | 27 | 166 | 3.2 | 8.0 | 0.00 | 0.00 | 0.00 | 76 | 1009.7 |
| 20260906063603 | 27 | 162 | 3.2 | 8.0 | 0.00 | 0.00 | 0.00 | 76 | 1009.8 |
| 20260906062703 | 27 | 166 | 3.2 | 9.7 | 0.00 | 0.00 | 0.00 | 75 | 1009.8 |
| 20260906061803 | 27 | 168 | 3.2 | 9.7 | 0.00 | 0.00 | 0.00 | 75 | 1009.9 |
| 20260906060904 | 27 | 170 | 3.2 | 11.3 | 0.00 | 0.00 | 0.00 | 75 | 1010.0 |
| 20260906060003 | 28 | 169 | 4.8 | 9.7 | 0.00 | 0.00 | 0.00 | 74 | 1009.9 |
| 20260906055403 | 28 | 167 | 4.8 | 9.7 | 0.00 | 0.00 | 0.00 | 74 | 1009.9 |
| 20260906054503 | 28 | 162 | 3.2 | 8.0 | 0.00 | 0.00 | 0.00 | 74 | 1009.7 |
| 20260906053603 | 28 | 163 | 0.0 | 6.4 | 0.00 | 0.00 | 0.00 | 74 | 1009.6 |
| 20260906052724 | 28 | 163 | 0.0 | 3.2 | 0.00 | 0.00 | 0.00 | 73 | 1009.5 |
| 20260906051804 | 28 | 175 | 1.6 | 6.4 | 0.00 | 0.00 | 0.00 | 73 | 1009.5 |
| 20260906050903 | 28 | 165 | 3.2 | 9.7 | 0.00 | 0.00 | 0.00 | 73 | 1009.5 |
| 20260906050004 | 28 | 163 | 3.2 | 9.7 | 0.00 | 0.00 | 0.00 | 72 | 1009.6 |
| 20260906045403 | 28 | 161 | 3.2 | 8.0 | 0.00 | 0.00 | 0.00 | 72 | 1009.6 |
| 20260906044503 | 28 | 159 | 3.2 | 9.7 | 0.00 | 0.00 | 0.00 | 71 | 1009.6 |
| 20260906043603 | 28 | 157 | 3.2 | 9.7 | 0.00 | 0.00 | 0.00 | 71 | 1009.5 |
| 20260906042724 | 28 | 159 | 3.2 | 11.3 | 0.00 | 0.00 | 0.00 | 71 | 1009.5 |
| 20260906041803 | 28 | 165 | 3.2 | 8.0 | 0.00 | 0.00 | 0.00 | 70 | 1009.4 |
| 20260906040924 | 28 | 174 | 3.2 | 8.0 | 0.00 | 0.00 | 0.00 | 70 | 1009.5 |
| 20260906040004 | 29 | 169 | 3.2 | 9.7 | 0.00 | 0.00 | 0.00 | 70 | 1009.4 |
| 20260906035424 | 29 | 166 | 3.2 | 9.7 | 0.00 | 0.00 | 0.00 | 70 | 1009.2 |
| 20260906034503 | 29 | 158 | 3.2 | 9.7 | 0.00 | 0.00 | 0.00 | 70 | 1009.4 |
| 20260906033624 | 29 | 158 | 3.2 | 9.7 | 0.00 | 0.00 | 0.00 | 69 | 1009.4 |
| 20260906032703 | 30 | 151 | 3.2 | 8.0 | 0.00 | 0.00 | 0.00 | 69 | 1009.5 |
| 20260906031803 | 30 | 148 | 4.8 | 14.5 | 0.00 | 0.00 | 0.00 | 68 | 1009.5 |
| 20260906030903 | 30 | 148 | 4.8 | 14.5 | 0.00 | 0.00 | 0.00 | 68 | 1009.4 |
| 20260906030003 | 30 | 146 | 4.8 | 11.3 | 0.00 | 0.00 | 0.00 | 68 | 1009.3 |
| 20260906025404 | 30 | 143 | 3.2 | 11.3 | 0.00 | 0.00 | 0.00 | 67 | 1009.4 |
| 20260906024503 | 30 | 146 | 6.4 | 14.5 | 0.00 | 0.00 | 0.00 | 67 | 1009.2 |
| 20260906023603 | 30 | 146 | 6.4 | 14.5 | 0.00 | 0.00 | 0.00 | 67 | 1009.1 |
| 20260906022703 | 30 | 149 | 4.8 | 12.9 | 0.00 | 0.00 | 0.00 | 66 | 1008.9 |
| 20260906021803 | 30 | 148 | 6.4 | 20.9 | 0.00 | 0.00 | 0.00 | 66 | 1008.6 |
| 20260906020903 | 30 | 148 | 6.4 | 20.9 | 0.00 | 0.00 | 0.00 | 65 | 1008.6 |
| 20260906020003 | 31 | 142 | 4.8 | 16.1 | 0.00 | 0.00 | 0.00 | 65 | 1008.5 |
| 20260906015404 | 31 | 141 | 6.4 | 16.1 | 0.00 | 0.00 | 0.00 | 65 | 1008.4 |
| 20260906014503 | 31 | 143 | 6.4 | 17.7 | 0.00 | 0.00 | 0.00 | 64 | 1008.3 |
| 20260906013603 | 31 | 140 | 4.8 | 17.7 | 0.00 | 0.00 | 0.00 | 63 | 1008.2 |
| 20260906012703 | 31 | 141 | 6.4 | 14.5 | 0.00 | 0.00 | 0.00 | 63 | 1008.0 |
| 20260906011803 | 31 | 137 | 6.4 | 19.3 | 0.00 | 0.00 | 0.00 | 61 | 1007.9 |
| 20260906010903 | 32 | 129 | 4.8 | 12.9 | 0.00 | 0.00 | 0.00 | 59 | 1007.8 |
| 20260906010003 | 32 | 130 | 6.4 | 14.5 | 0.00 | 0.00 | 0.00 | 56 | 1007.9 |
| 20260906005403 | 33 | 129 | 8.0 | 17.7 | 0.00 | 0.00 | 0.00 | 54 | 1007.9 |
| 20260906004504 | 34 | 143 | 6.4 | 20.9 | 0.00 | 0.00 | 0.00 | 48 | 1007.7 |
| 20260906003604 | 35 | 147 | 3.2 | 11.3 | 0.00 | 0.00 | 0.00 | 46 | 1007.5 |
| 20260906002704 | 35 | 151 | 4.8 | 14.5 | 0.00 | 0.00 | 0.00 | 46 | 1007.5 |
| 20260906001804 | 35 | 145 | 6.4 | 16.1 | 0.00 | 0.00 | 0.00 | 45 | 1007.4 |
| 20260906000904 | 35 | 148 | 6.4 | 16.1 | 0.00 | 0.00 | 0.00 | 44 | 1007.4 |
| 20260906000004 | 35 | 149 | 4.8 | 16.1 | 0.00 | 0.00 | 0.00 | 43 | 1007.3 |
| 20260905235405 | 36 | 152 | 4.8 | 17.7 | 0.00 | 0.00 | 0.00 | 43 | 1007.2 |
| 20260905234504 | 36 | 148 | 4.8 | 17.7 | 0.00 | 0.00 | 0.00 | 42 | 1007.1 |
| 20260905233604 | 36 | 137 | 4.8 | 14.5 | 0.00 | 0.00 | 0.00 | 43 | 1007.2 |
| 20260905232705 | 36 | 140 | 6.4 | 16.1 | 0.00 | 0.00 | 0.00 | 42 | 1007.1 |
| 20260905231826 | 37 | 133 | 4.8 | 16.1 | 0.00 | 0.00 | 0.00 | 40 | 1007.2 |
| 20260905230904 | 37 | 103 | 1.6 | 6.4 | 0.00 | 0.00 | 0.00 | 37 | 1007.1 |
| 20260905230004 | 38 | 91 | 1.6 | 4.8 | 0.00 | 0.00 | 0.00 | 37 | 1007.0 |
| 20260905225404 | 38 | 70 | 1.6 | 6.4 | 0.00 | 0.00 | 0.00 | 37 | 1007.1 |